Regional Weather Roundup
Issued by NWS

Home | Current Version | Previous Version | Text Only | Print | Product List | Glossary On
Versions: 1 2 3 4 5 6 7 8 9 10 11 12 13 14 15 16 17 18 19 20 21 22 23 24 25 26 27 28 29 30 31 32 33 34 35 36 37 38 39 40 41 42 43 44 45 46 47 48 49 50
000
ASUS43 KMKX 030703
RWRWI

WISCONSIN REGIONAL WEATHER ROUNDUP
NATIONAL WEATHER SERVICE MILWAUKEE/SULLIVAN WI
200 AM CDT WED JUN 03 2015

NOTE: "FAIR" INDICATES FEW OR NO CLOUDS BELOW 12,000 FEET WITH NO
SIGNIFICANT WEATHER AND/OR OBSTRUCTIONS TO VISIBILITY.

WIZ001-002-006>008-014>016-023>028-030800-
NORTHWEST WISCONSIN

CITY           SKY/WX    TMP DP  RH WIND       PRES   REMARKS
SUPERIOR ARPT  MOCLDY    44  40  85 NE6       29.90S
ASHLAND        PTCLDY    54  49  83 S5        29.92S
HAYWARD        CLEAR     60  49  66 S7        29.93R
SIREN          MOCLDY    63  51  65 S10       29.90S
CUMBERLAND     PTCLDY    57  50  77 S8        29.93S
RICE LAKE      PTCLDY    60  50  68 SE8       29.95F
CHETEK         PTCLDY    60  51  71 SE10      29.94F
LADYSMITH      PTCLDY    58  48  68 SE8       29.97F
EAU CLAIRE     NOT AVBL
MENOMONIE      CLEAR     58  51  77 E3        29.95S
NEW RICHMOND   MOCLDY    62  51  68 S13       29.92F
OSCEOLA        MOCLDY    62  52  69 S9        29.94S
$$

WIZ003>005-009-010-017-018-030800-
NORTH CENTRAL WISCONSIN

CITY           SKY/WX    TMP DP  RH WIND       PRES   REMARKS
MANITOWISH WTR MOCLDY    57  45  63 S8        29.99S
ARBOR VITAE    MOCLDY    58  44  58 S7        30.00F
WOODRUFF       MOCLDY    58  44  58 S7        30.00F
RHINELANDER    MOCLDY    55  42  61 SE6       30.02F
EAGLE RIVER    MOCLDY    53  39  59 S5        30.01F
LAND O LAKES   PTCLDY    55  40  58 S5        30.02S
PHILLIPS       MOCLDY    58  44  61 S7        29.98F
TOMAHAWK       MOCLDY    54  42  66 CALM      30.02F
MEDFORD        MOCLDY    56  46  68 SE7       30.00F
MERRILL        MOCLDY    55  45  68 S3        30.03F
$$

WIZ029-030-035-036-043>047-030800-
CENTRAL WISCONSIN

CITY           SKY/WX    TMP DP  RH WIND       PRES   REMARKS
WAUSAU         PTCLDY    55  46  71 SE5       30.01F
MOSINEE        PTCLDY    52  46  82 SE6       30.03F
MARSHFIELD     PTCLDY    53  45  74 S6        30.01S
STEVENS POINT  CLEAR     54  45  72 S5        30.03F
WAUPACA        PTCLDY    52  47  83 CALM      30.05S
WAUTOMA        NOT AVBL
WISC RAPIDS    CLEAR     55  46  71 S6        30.03F
CAMP DOUGLAS   PTCLDY    46  46 100 SE3       30.01S
$$

WIZ011>013-019>022-031-037>040-048>050-030800-
NORTHEAST WISCONSIN

CITY           SKY/WX    TMP DP  RH WIND       PRES   REMARKS
ANTIGO         MOCLDY    49  43  78 S8        30.04F
SHAWANO        MOCLDY    54  40  58 CALM      30.06R
OCONTO         PTCLDY    52  48  84 SE5       30.06S
STURGEON BAY   CLEAR     48  37  66 S12       30.09S
GREEN BAY      PTCLDY    49  42  77 CALM      30.06F
MANITOWOC      NOT AVBL
APPLETON       PTCLDY    54  43  66 S6        30.05F
CLINTONVILLE   PTCLDY    48  45  87 CALM      30.05S
OSHKOSH        PTCLDY    51  44  77 S10       30.05F
$$

WIZ032>034-041-042-053>061-030800-
SOUTHWEST WISCONSIN

CITY           SKY/WX    TMP DP  RH WIND       PRES   REMARKS
LA CROSSE      CLEAR     62  49  62 S8        29.98S
SPARTA         CLEAR     48  44  85 CALM      30.01S
VIROQUA        CLEAR     58  47  67 S7        30.02R
BOSCOBEL       PTCLDY    53  51  93 CALM      30.02S
PRAIRIE DU CHI PTCLDY    57  49  75 E5        30.01S
PLATTEVILLE    MOCLDY    59  48  67 SE8       30.03S
$$

WIZ056-057-062-063-064-067-068-030800-
SOUTH CENTRAL WISCONSIN

CITY           SKY/WX    TMP DP  RH WIND       PRES   REMARKS
REEDSBURG      MOCLDY    54  47  77 CALM      30.03S
BARABOO/DELLS  MOCLDY    56  46  69 SE5       30.04S
LONE ROCK      NOT AVBL
MINERAL POINT  MOCLDY    59  45  58 SE5       30.04S
MADISON        MOCLDY    59  47  64 S9        30.05S
MIDDLETON      MOCLDY    60  46  59 S6        30.05F
WATERTOWN      MOCLDY    50  47  90 CALM      30.06S
MONROE         MOCLDY    55  46  71 SE8       30.05S
JANESVILLE     MOCLDY    55  46  71 S8        30.06F
$$

WIZ051-052-058>065-066-070>072-030800-
SOUTHEAST WISCONSIN

CITY           SKY/WX    TMP DP  RH WIND       PRES   REMARKS
MILWAUKEE      MOCLDY    50  42  74 S8        30.10S
WAUKESHA       PTCLDY    50  43  76 CALM      30.10S
MILWAUKEE/TIMM PTCLDY    46  41  81 CALM      30.10S
RACINE         CLEAR     49  41  74 S5        30.11S
BURLINGTON     PTCLDY    44  43  95 CALM      30.09S
KENOSHA        CLEAR     47  43  86 CALM      30.10R
FOND DU LAC    PTCLDY    50  44  80 S3        30.06F
SHEBOYGAN      PTCLDY    46  43  89 SW3       30.09S
WEST BEND      PTCLDY    46  41  81 CALM      30.09S
JUNEAU         MOCLDY    52  45  78 SE8       30.07F
$$

LSZ147-162-030800-
LAKE SUPERIOR

STATION/POSITION TIME  TEMP    WIND        PRES    WAVE
                       AIR SEA DIR/SP/G            HT/PER
                 (UTC) (F)     (DEG/KT/KT) (MB)    (FT/S)
W MID LAKE BUOY  0550   45 37  160/ 10/ 10   N/A     1
DEVILS ISLAND    0600   45      40/  4/  5   N/A
PORT WING        0640   44     300/  2/  3   N/A
SAXON HARBOR     0600   64     190/  2/  7   N/A
$$

LMZ867-665-643>646-030800-
LAKE MICHIGAN

STATION/POSITION TIME  TEMP    WIND        PRES    WAVE
                       AIR SEA DIR/SP/G            HT/PER
                 (UTC) (F)     (DEG/KT/KT) (MB)    (FT/S)
CHAMBERS ISLAND  0500   51     130/  6/  9   N/A
N MID LAKE BUOY  0550   42 37  160/  8/  8   N/A     0
NORTHPORT PIER   0600   51     170/  6/  9   N/A
SISTER BAY       0518   47     140/  9/ 14   N/A
ALGOMA LAKESHORE 0639          210/  8/  9   N/A
KEWAUNEE LAKESHO 0600   48                   N/A
SHEBOYGAN LAKESH 0600   48     220/  5/  5   N/A
PORT WASHINGTON  0640   48        CALM       N/A
ATWATER BUOY     0600   47 47   60/  2/  4   N/A
MILWAUKEE LAKESH 0600   50     100/  1/  2   N/A
S MID LAKE BUOY  0550   44 38  130/  8/ 10   N/A
KENOSHA   LAKESH 0600   52     170/  9/ 10   N/A
$$

TC  - TEMPERATURE IN CELSIUS
VSB - VISIBILITY IN STATUTE MILES
WCI - WIND CHILL INDEX
HX  - HEAT INDEX



USA.gov is the U.S. government's official web portal to all federal, state and local government web resources and services.